Starlink 11441

operational
NORAD ID: 62413 Int'l Des: 2024-249 Owner: SPXS Country: US Constellation: starlink
LEOCIRCULAR

Über Starlink 11441

Beschreibung wird geladen...

Live-Position

3D-Globus wird geladen...

Nächste Überflüge

Höhenverlauf

Altitude vs Time

uPlot chart will show altitude changes over time

Zweizeiliger Elementsatz

1 62413U 24249E 25351.34847443 .00237586 00000-0 17865-2 0 9990
2 62413 43.0010 303.6984 0001212 205.3082 154.7727 15.71054295 56536
Epoch: 17. Dez. 2025 • Age: 14 hours

Aktueller Status

Höhe 355.1 km
Geschwindigkeit 7.70 km/s
Subsatellitenpunkt 18.67°N, 98.63°W
Startdatum 23. Dez. 2024
Alter 0.9 years
Typ internet

Technische Details

Klassifizierung Payload
Masse 960.00 kg
Trockenmasse 910.00 kg
Gesamtmasse 960.00 kg
Länge 0.30 m
Durchmesser 4.10 m
Spannweite 29.00 m
Form Box + pan
Hersteller SPXS
Bus-Typ Starlink V2MD
Phasenstatus In Orbit
Besitzer/Staat SPXS/US

Große Konstellationen

Loading constellations...